[[{"header":{"parameterUnit":"m.s-1","parameterCategory":1,"la1":30.2991,"la2":30.254,"lo1":-89.0895,"lo2":-89.0444,"dy":0.0017,"dx":0.0017,"nx":28,"ny":28,"refTime":"2024-06-07T21:00:00:Z","depth":0,"parameterNumber":2,"parameterNumberName":"U-component_of_WINDS"},"data":[0,0,0,0,0,0,0,0,0,0,0,0,0,0,0,0,0,0,0,0,0,0,0,0,0,0,0,0,0,0,0,0,0,0,0,0,0,0,0,0,0,0,0,0,0,0,0,0,0,0,0,0,0,0,0,0,0,0,-1.1219,-1.1218,0,-1.1114,-1.1113,-1.1112,-1.1038,-1.1037,-1.1037,-1.1036,-1.0926,-1.0924,-1.0922,0,0,0,0,0,0,0,0,0,0,0,0,0,-1.1352,-1.135,-1.1219,-1.1218,-1.1216,-1.1115,-1.1113,-1.1112,-1.1038,-1.1037,-1.1037,-1.1036,-1.0927,-1.0924,-1.0921,0,0,0,0,0,0,0,0,0,0,0,0,0,-1.1276,-1.135,-1.1219,-1.1167,-1.1162,-1.1115,-1.1113,-1.1111,-1.1038,-1.1037,-1.1036,-1.1036,-1.0928,-1.0925,-1.0921,-1.0916,0,0,-1.091,-1.0909,0,0,0,0,0,0,0,0,-1.128,-1.1271,-1.1176,-1.1171,-1.1164,-1.1088,-1.112,-1.1046,-1.1038,-1.1085,-1.1036,-1.1035,-1.0981,-1.0973,-1.0955,-1.0911,-1.0907,-1.091,-1.0908,-1.0906,-1.0905,0,0,0,0,0,0,0,-1.1286,-1.1275,-1.1177,-1.1175,-1.1168,-1.1149,-1.1137,-1.1105,-1.1039,-1.1081,-1.1075,-1.1064,-1.0977,-1.0959,-1.0952,-1.0905,-1.091,-1.0907,-1.0905,-1.0903,-1.0851,-1.0852,0,0,0,0,0,0,-1.1299,-1.128,-1.1181,-1.1174,-1.1221,-1.1147,-1.1134,-1.1114,-1.1039,-1.1027,-1.1065,-1.1061,-1.0965,-1.0956,-1.0948,-1.0936,-1.0906,-1.0903,-1.0901,-1.085,-1.0851,-1.0852,0,0,0,0,0,0,-1.1303,-1.1291,-1.1185,-1.1226,-1.1211,-1.1146,-1.1124,-1.1112,-1.1093,-1.1027,-1.1015,-1.1058,-1.0964,-1.0953,-1.0925,-1.0931,-1.0901,-1.0898,-1.085,-1.0851,-1.0852,-1.0914,0,0,0,0,0,0,-1.1307,-1.1293,-1.1291,-1.1226,-1.1209,-1.1165,-1.1124,-1.1111,-1.1088,-1.1081,-1.1017,-1.1006,-1.0963,-1.093,-1.0921,-1.0926,-1.0895,-1.0849,-1.085,-1.0851,-1.0911,-1.0917,-1.0922,0,0,0,0,0,-1.1312,-1.1312,-1.1291,-1.128,-1.1205,-1.1165,-1.1155,-1.1106,-1.1088,-1.1085,-1.1043,-1.1008,-1.0933,-1.0928,-1.0917,-1.0921,-1.0848,-1.085,-1.0851,-1.0908,-1.0916,-1.0922,0,0,0,0,0,0,-1.1378,-1.1303,-1.1278,-1.1258,-1.1219,-1.1153,-1.1147,-1.1116,-1.1079,-1.1075,-1.1015,-1.1001,-1.0979,-1.0947,-1.0944,-1.0912,-1.0886,-1.0886,-1.0933,-1.094,-1.0945,-1.0952,-1.0892,0,0,0,0,0,-1.1391,-1.1366,-1.1301,-1.1289,-1.1271,-1.1213,-1.1194,-1.1159,-1.1116,-1.1098,-1.1054,-1.1012,-1.0978,-1.0958,-1.0924,-1.0907,-1.0891,-1.0904,-1.091,-1.0915,-1.0914,-1.0902,-1.0906,-1.0858,-1.0858,-1.0858,0,0,-1.1416,-1.1372,-1.1359,-1.1301,-1.1267,-1.1241,-1.1199,-1.1174,-1.1153,-1.1094,-1.1064,-1.1031,-1.098,-1.0958,-1.0945,-1.093,-1.0925,-1.0917,-1.0922,-1.0918,-1.0904,-1.0909,-1.0913,-1.0859,-1.0859,-1.0859,0,0,-1.1448,-1.1413,-1.1399,-1.1365,-1.1314,-1.1276,-1.1273,-1.1211,-1.1187,-1.1157,-1.1111,-1.1086,-1.1031,-1.0996,-1.0971,-1.0992,-1.0957,-1.0983,-1.1011,-1.1,-1.1004,-1.1007,-1.1012,-1.1015,-1.0983,-1.0983,-1.0983,0,-1.1486,-1.1446,-1.1396,-1.1373,-1.1348,-1.1295,-1.1279,-1.1249,-1.1188,-1.1172,-1.1157,-1.1086,-1.1048,-1.1016,-1.1021,-1.1004,-1.0997,-1.0988,-1.1007,-1.101,-1.1012,-1.1016,-1.1019,-1.0986,-1.0986,-1.0985,-1.0985,0,-1.1493,-1.1467,-1.1461,-1.1405,-1.138,-1.1361,-1.1307,-1.1288,-1.1256,-1.122,-1.1189,-1.1142,-1.1097,-1.1088,-1.1057,-1.1051,-1.1043,-1.1019,-1.0991,-1.1021,-1.1024,-1.1025,-1.0991,-1.099,-1.0989,-1.0988,0,0,-1.1563,-1.148,-1.1479,-1.1452,-1.1392,-1.1369,-1.1348,-1.1305,-1.1289,-1.125,-1.1229,-1.1184,-1.1161,-1.1133,-1.1097,-1.1088,-1.1105,-1.1064,-1.1062,-1.1071,-1.1095,-1.1112,-1.1115,-1.1083,-1.1084,-1.1084,-1.1098,0,-1.1584,-1.1543,-1.1498,-1.1472,-1.1445,-1.1395,-1.1376,-1.1337,-1.1302,-1.1274,-1.1236,-1.1204,-1.1177,-1.1159,-1.1148,-1.1106,-1.1109,-1.1104,-1.1062,-1.1061,-1.1074,-1.1117,-1.1135,-1.1151,-1.1099,-1.11,-1.11,0,-1.1603,-1.1567,-1.1539,-1.1481,-1.1468,-1.1452,-1.1408,-1.1383,-1.1337,-1.1312,-1.1282,-1.1244,-1.1218,-1.1196,-1.1158,-1.1156,-1.1137,-1.1114,-1.1113,-1.1105,-1.1081,-1.1108,-1.1155,-1.1157,-1.1102,-1.1101,-1.1101,0,-1.1654,-1.1599,-1.1574,-1.1553,-1.1485,-1.1475,-1.1446,-1.14,-1.1377,-1.1339,-1.1323,-1.1283,-1.126,-1.123,-1.1182,-1.117,-1.1149,-1.1123,-1.1126,-1.1127,-1.1122,-1.1122,-1.1164,-1.1114,-1.1114,-1.1113,-1.1113,0,-1.1681,-1.1666,-1.1596,-1.1581,-1.1562,-1.151,-1.1492,-1.1458,-1.1418,-1.1394,-1.1349,-1.1328,-1.1267,-1.1239,-1.1202,-1.1175,-1.1166,-1.1144,-1.1134,-1.1147,-1.115,-1.1131,-1.1128,-1.1114,-1.1114,-1.1114,-1.1114,0,-1.1734,-1.1687,-1.1657,-1.1596,-1.158,-1.1568,-1.1515,-1.1498,-1.1462,-1.1433,-1.1423,-1.1365,-1.1329,-1.128,-1.1229,-1.1203,-1.1182,-1.1167,-1.1197,-1.1191,-1.1196,-1.1196,-1.1226,-1.1227,-1.1178,-1.1179,-1.1179,0,-1.1754,-1.174,-1.1678,-1.1659,-1.1632,-1.1603,-1.1579,-1.1528,-1.1505,-1.1452,-1.1441,-1.1403,-1.1368,-1.1314,-1.1266,-1.1227,-1.1209,-1.1223,-1.1203,-1.1216,-1.1207,-1.1208,-1.1205,-1.1227,-1.1228,-1.1228,-1.1229,0,-1.1792,-1.177,-1.1738,-1.1698,-1.1671,-1.1637,-1.1601,-1.1588,-1.1529,-1.1506,-1.1469,-1.1443,-1.1391,-1.1352,-1.1307,-1.1276,-1.1242,-1.1236,-1.1234,-1.1246,-1.1263,-1.1252,-1.1208,-1.1235,-1.1234,-1.1234,-1.1234,-1.1233,-1.1827,-1.1813,-1.1766,-1.1732,-1.17,-1.1667,-1.1648,-1.1609,-1.1578,-1.1532,-1.1504,-1.1468,-1.1423,-1.1358,-1.1329,-1.13,-1.1286,-1.1284,-1.1283,-1.1283,-1.1287,-1.1271,-1.1292,-1.1291,-1.1291,-1.1291,-1.1291,0,-1.1862,-1.183,-1.1799,-1.175,-1.1723,-1.1695,-1.1654,-1.1633,-1.1602,-1.1563,-1.1531,-1.1488,-1.1451,-1.1401,-1.136,-1.1346,-1.133,-1.1337,-1.1336,-1.1329,-1.1302,-1.1307,-1.1351,-1.1351,-1.1351,-1.1351,-1.1351,-1.1351,-1.1877,-1.185,-1.1822,-1.1779,-1.1747,-1.1712,-1.1691,-1.166,-1.1628,-1.1583,-1.1552,-1.152,-1.1477,-1.1432,-1.1396,-1.1383,-1.1369,-1.138,-1.1362,-1.1337,-1.1331,-1.1326,-1.133,-1.1378,-1.1378,-1.1391,-1.1391,-1.1391]},{"header":{"parameterUnit":"m.s-1","parameterCategory":1,"la1":30.2991,"la2":30.254,"lo1":-89.0895,"lo2":-89.0444,"dy":0.0017,"dx":0.0017,"nx":28,"ny":28,"refTime":"2024-06-07T21:00:00:Z","depth":0,"parameterNumber":3,"parameterNumberName":"V-component_of_WINDS"},"data":[0,0,0,0,0,0,0,0,0,0,0,0,0,0,0,0,0,0,0,0,0,0,0,0,0,0,0,0,0,0,0,0,0,0,0,0,0,0,0,0,0,0,0,0,0,0,0,0,0,0,0,0,0,0,0,0,0,0,2.2388,2.2389,0,2.2436,2.2436,2.2437,2.2495,2.2496,2.2497,2.2497,2.2543,2.2544,2.2544,0,0,0,0,0,0,0,0,0,0,0,0,0,2.2346,2.2346,2.2388,2.2389,2.2389,2.2436,2.2436,2.2437,2.2495,2.2496,2.2497,2.2498,2.2543,2.2543,2.2544,0,0,0,0,0,0,0,0,0,0,0,0,0,2.2376,2.2346,2.2388,2.2424,2.2428,2.2435,2.2436,2.2437,2.2494,2.2496,2.2497,2.2498,2.2543,2.2543,2.2544,2.252,0,0,2.2546,2.2546,0,0,0,0,0,0,0,0,2.2374,2.2377,2.2418,2.2421,2.2426,2.2461,2.2438,2.2465,2.2494,2.2469,2.2498,2.2499,2.2514,2.2517,2.2523,2.2522,2.2524,2.2546,2.2546,2.2546,2.2546,0,0,0,0,0,0,0,2.2372,2.2375,2.2407,2.2418,2.2423,2.2437,2.2443,2.2443,2.2483,2.2471,2.2476,2.2481,2.2517,2.2522,2.2525,2.2524,2.2546,2.2546,2.2546,2.2547,2.2507,2.2505,0,0,0,0,0,0,2.2365,2.2373,2.2405,2.2408,2.2403,2.2437,2.2443,2.2448,2.2483,2.249,2.2479,2.2483,2.2521,2.2524,2.2526,2.2501,2.2546,2.2547,2.2547,2.2508,2.2506,2.2505,0,0,0,0,0,0,2.2363,2.2367,2.2403,2.2392,2.2398,2.2436,2.2441,2.2448,2.2454,2.249,2.2497,2.2478,2.2522,2.2526,2.2521,2.2504,2.2547,2.2547,2.251,2.2507,2.2505,2.245,0,0,0,0,0,0,2.2362,2.2366,2.2358,2.2391,2.2398,2.2398,2.244,2.2448,2.2455,2.2461,2.249,2.2496,2.2523,2.252,2.2522,2.2505,2.2548,2.2511,2.2509,2.2506,2.2453,2.2446,2.244,0,0,0,0,0,2.236,2.2339,2.2357,2.2361,2.2389,2.2397,2.2401,2.2433,2.2454,2.2445,2.2468,2.2496,2.2505,2.2519,2.2522,2.2505,2.2513,2.2509,2.2506,2.2456,2.2447,2.244,0,0,0,0,0,0,2.2301,2.2344,2.2364,2.2354,2.2371,2.2407,2.2397,2.2422,2.2433,2.2438,2.2477,2.2483,2.2474,2.2489,2.2504,2.2484,2.2513,2.251,2.2474,2.2466,2.2459,2.2456,2.2548,0,0,0,0,0,2.2287,2.2291,2.2328,2.2315,2.2323,2.2358,2.2363,2.2387,2.2406,2.2413,2.2436,2.2453,2.246,2.2464,2.2472,2.2456,2.2463,2.2445,2.2439,2.2433,2.243,2.2423,2.2416,2.2494,2.2494,2.2495,0,0,2.2258,2.2282,2.2282,2.2304,2.232,2.2323,2.2364,2.2365,2.2367,2.2413,2.2411,2.2428,2.245,2.2439,2.2436,2.2452,2.241,2.2429,2.2424,2.2424,2.2419,2.2412,2.2405,2.2492,2.2493,2.2493,0,0,2.2206,2.2224,2.2216,2.2232,2.2257,2.2281,2.2278,2.231,2.2324,2.2322,2.2357,2.236,2.2371,2.2385,2.2394,2.2348,2.2374,2.235,2.2314,2.2307,2.2301,2.2296,2.228,2.2274,2.2347,2.2347,2.2347,0,2.2166,2.2172,2.2208,2.2208,2.2217,2.2259,2.2251,2.2265,2.229,2.2295,2.2312,2.2328,2.2346,2.234,2.2329,2.2334,2.2333,2.2347,2.2299,2.2294,2.229,2.2275,2.2269,2.2344,2.2344,2.2344,2.2345,0,2.2122,2.2126,2.2116,2.2142,2.2149,2.2145,2.218,2.2183,2.2206,2.2228,2.2226,2.2249,2.2263,2.2263,2.2285,2.226,2.2269,2.2292,2.2323,2.2279,2.2266,2.2261,2.2339,2.234,2.2341,2.2342,0,0,2.2034,2.208,2.2076,2.2089,2.2119,2.2123,2.212,2.2135,2.2137,2.2154,2.2152,2.2161,2.2183,2.2193,2.2217,2.2211,2.2174,2.2235,2.2236,2.2223,2.2149,2.2132,2.2125,2.2191,2.219,2.219,2.2148,0,2.1988,2.1988,2.202,2.201,2.2014,2.2056,2.2053,2.2072,2.2092,2.2098,2.212,2.2126,2.2154,2.2161,2.2156,2.2179,2.216,2.2183,2.219,2.219,2.2184,2.2118,2.21,2.2059,2.2143,2.2142,2.2141,0,2.1935,2.195,2.194,2.1972,2.1975,2.1973,2.199,2.1995,2.2017,2.2032,2.2043,2.2071,2.207,2.2099,2.2099,2.2114,2.2119,2.213,2.213,2.2132,2.2163,2.2119,2.2047,2.2041,2.2133,2.2134,2.2135,0,2.1872,2.189,2.1887,2.1896,2.1933,2.1931,2.1946,2.1969,2.1976,2.199,2.1996,2.2009,2.2016,2.2026,2.2057,2.2075,2.2053,2.2084,2.2066,2.2065,2.206,2.2059,2.1988,2.2062,2.2062,2.2062,2.2062,0,2.1818,2.1811,2.186,2.1857,2.1851,2.1888,2.188,2.1899,2.192,2.1922,2.1958,2.1959,2.1999,2.2004,2.2028,2.2025,2.2027,2.204,2.2046,2.2037,2.2035,2.2041,2.2045,2.206,2.2061,2.2061,2.2061,0,2.1747,2.178,2.1779,2.1815,2.1824,2.1817,2.1847,2.1847,2.187,2.1872,2.1875,2.1911,2.1919,2.1951,2.1966,2.1982,2.1972,2.1984,2.1965,2.1969,2.1949,2.1951,2.1879,2.1872,2.1949,2.1948,2.1948,0,2.1711,2.1707,2.1742,2.1747,2.1761,2.1768,2.1776,2.1812,2.1819,2.1844,2.184,2.1852,2.1864,2.1875,2.1902,2.1915,2.1928,2.1902,2.193,2.1921,2.1928,2.1928,2.1929,2.1896,2.1895,2.1894,2.1893,0,2.1643,2.166,2.167,2.1687,2.1695,2.171,2.1726,2.1727,2.1768,2.1774,2.1784,2.1793,2.181,2.1821,2.1838,2.1853,2.188,2.1884,2.1881,2.1871,2.1861,2.1867,2.1949,2.1886,2.1886,2.1887,2.1887,2.1888,2.1589,2.1588,2.1613,2.1624,2.164,2.1655,2.1657,2.168,2.1689,2.1707,2.1727,2.1735,2.1757,2.1783,2.1796,2.1802,2.1817,2.1812,2.1811,2.1809,2.1805,2.1859,2.1805,2.1806,2.1806,2.1806,2.1806,0,2.1524,2.1543,2.1552,2.1575,2.1583,2.1609,2.1628,2.1633,2.164,2.1659,2.167,2.1681,2.1693,2.1721,2.1734,2.1734,2.1747,2.1736,2.1737,2.174,2.1791,2.1793,2.1726,2.1726,2.1726,2.1726,2.1726,2.1726,2.1491,2.1491,2.151,2.1518,2.1536,2.1545,2.1554,2.1567,2.1583,2.1595,2.1605,2.1623,2.1646,2.1662,2.1673,2.1681,2.1685,2.1671,2.1683,2.1729,2.1737,2.1744,2.1746,2.1671,2.1671,2.1632,2.1632,2.1632]}]]